Starlink 5256

operational
NORAD ID: 54175 Int'l Des: 2022-141 Owner: SPXS Country: US Constellation: starlink
LEOCIRCULAR

About Starlink 5256

Description loading...

Live Position

Loading 3D Globe...

Upcoming Passes

Altitude History

Altitude vs Time

uPlot chart will show altitude changes over time

Two-Line Element Set

1 54175U 22141U 25304.09896865 -.00001092 00000-0 -50482-4 0 9994
2 54175 53.2176 225.8884 0001746 71.7813 288.3369 15.08848473166291
Epoch: Oct 31, 2025 • Age: 22 hours

Current Status

Altitude 543.8 km
Velocity 7.59 km/s
Sub-Earth Point -12.88°S, 12.52°E
Launch Date Oct 28, 2022
Age 3 years
Type internet

Technical Details

Classification Payload
Mass 305.00 kg
Dry Mass 290.00 kg
Total Mass 305.00 kg
Length 0.20 m
Diameter 2.80 m
Span 9.00 m
Shape Box + pan
Manufacturer SPXS
Bus Type Starlink
Phase Status In Orbit
Owner/State SPXS/US

Large Constellations

Loading constellations...